When you browse on this site, cookies collect data to enhance your experience and personalize the content and advertising you see.
Visit our Privacy Policy to learn more. By continuing to use the site, you agree to this use of cookies and data.
  • Em Portugal
  • Lista de países
  • Para 7 dias
  • Temperatura da água
  • Mapas de satélite
  • Mapa do tempo
  • Widgets de tempo
  • user-avatar
    Iniciar Sessão

    Previsão horária em Sapporo

    Hoje, 21 Abril, Domingo

    Tempo Temperatura Precipitação Vento Pressão Humidade
    00:00 +3°C° 0 mm 1 m/s 757 mmHg 65%
    01:00 +3°C° 0 mm 1 m/s 757 mmHg 64%
    02:00 +2°C° 0 mm 1 m/s 757 mmHg 64%
    03:00 +2°C° 0 mm 1 m/s 757 mmHg 63%
    04:00 +3°C° 0 mm 1 m/s 757 mmHg 60%
    05:00 +3°C° 0 mm 1 m/s 757 mmHg 58%
    06:00 +4°C° 0 mm 1 m/s 757 mmHg 55%
    07:00 +6°C° 0 mm 1 m/s 757 mmHg 49%
    08:00 +8°C° 0 mm 2 m/s 757 mmHg 42%
    09:00 +10°C° 0 mm 2 m/s 757 mmHg 36%
    10:00 +13°C° 0 mm 2 m/s 756 mmHg 35%
    11:00 +14°C° 0 mm 1 m/s 756 mmHg 33%
    12:00 +16°C° 0 mm 1 m/s 756 mmHg 31%
    13:00 +16°C° 0 mm 1 m/s 756 mmHg 32%
    14:00 +16°C° 0 mm 1 m/s 755 mmHg 33%
    15:00 +16°C° 0 mm 1 m/s 755 mmHg 34%
    16:00 +15°C° 0 mm 1 m/s 755 mmHg 41%
    17:00 +13°C° 0 mm 1 m/s 756 mmHg 49%
    18:00 +11°C° 0 mm 1 m/s 756 mmHg 56%
    19:00 +11°C° 0 mm 1 m/s 756 mmHg 59%
    20:00 +10°C° 0 mm 1 m/s 756 mmHg 63%
    21:00 +9°C° 0 mm 1 m/s 757 mmHg 66%
    22:00 +9°C° 0.1 mm 1 m/s 757 mmHg 69%
    23:00 +9°C° 0.1 mm 1 m/s 757 mmHg 72%

    Amanhã, 22 Abril, Segunda-feira

    Tempo Temperatura Precipitação Vento Pressão Humidade
    00:00 +9°C° 0.1 mm 1 m/s 757 mmHg 75%
    01:00 +8°C° 0.1 mm 1 m/s 757 mmHg 75%
    02:00 +8°C° 0.1 mm 1 m/s 757 mmHg 75%
    03:00 +8°C° 0.1 mm 1 m/s 756 mmHg 75%
    04:00 +8°C° 0 mm 1 m/s 757 mmHg 74%
    05:00 +8°C° 0 mm 1 m/s 757 mmHg 73%
    06:00 +8°C° 0 mm 1 m/s 757 mmHg 71%
    07:00 +10°C° 0 mm 1 m/s 757 mmHg 65%
    08:00 +12°C° 0 mm 1 m/s 757 mmHg 58%
    09:00 +14°C° 0 mm 2 m/s 757 mmHg 51%
    10:00 +13°C° 0 mm 3 m/s 758 mmHg 48%
    11:00 +13°C° 0 mm 4 m/s 758 mmHg 45%
    12:00 +14°C° 0 mm 5 m/s 758 mmHg 42%
    13:00 +14°C° 0 mm 4 m/s 758 mmHg 36%
    14:00 +13°C° 0 mm 4 m/s 758 mmHg 31%
    15:00 +13°C° 0 mm 4 m/s 758 mmHg 25%
    16:00 +12°C° 0 mm 3 m/s 759 mmHg 29%
    17:00 +11°C° 0 mm 3 m/s 759 mmHg 32%
    18:00 +9°C° 0 mm 2 m/s 759 mmHg 36%
    19:00 +8°C° 0 mm 2 m/s 760 mmHg 38%
    20:00 +7°C° 0 mm 2 m/s 761 mmHg 40%
    21:00 +7°C° 0 mm 1 m/s 761 mmHg 42%
    22:00 +7°C° 0 mm 1 m/s 761 mmHg 42%
    23:00 +7°C° 0 mm 1 m/s 762 mmHg 42%

    Depois de amanhã, 23 Abril, Terça-feira

    Tempo Temperatura Precipitação Vento Pressão Humidade
    00:00 +6°C° 0 mm 1 m/s 762 mmHg 42%
    01:00 +6°C° 0 mm 1 m/s 762 mmHg 42%
    02:00 +6°C° 0 mm 1 m/s 762 mmHg 42%
    03:00 +6°C° 0 mm 1 m/s 762 mmHg 41%
    04:00 +6°C° 0 mm 1 m/s 762 mmHg 42%
    05:00 +6°C° 0 mm 2 m/s 762 mmHg 42%
    06:00 +6°C° 0 mm 2 m/s 762 mmHg 42%
    07:00 +8°C° 0 mm 2 m/s 761 mmHg 39%
    08:00 +10°C° 0 mm 3 m/s 761 mmHg 36%
    09:00 +13°C° 0 mm 4 m/s 761 mmHg 32%
    10:00 +13°C° 0 mm 4 m/s 761 mmHg 31%
    11:00 +14°C° 0 mm 4 m/s 761 mmHg 29%
    12:00 +15°C° 0 mm 4 m/s 761 mmHg 28%
    13:00 +14°C° 0 mm 4 m/s 760 mmHg 33%
    14:00 +13°C° 0 mm 4 m/s 760 mmHg 37%
    15:00 +12°C° 0 mm 4 m/s 759 mmHg 42%
    16:00 +11°C° 0 mm 4 m/s 759 mmHg 46%
    17:00 +10°C° 0 mm 5 m/s 759 mmHg 49%
    18:00 +9°C° 0 mm 5 m/s 759 mmHg 53%
    19:00 +9°C° 0 mm 5 m/s 759 mmHg 57%
    20:00 +8°C° 0 mm 5 m/s 759 mmHg 61%
    21:00 +8°C° 0 mm 5 m/s 759 mmHg 65%
    22:00 +8°C° 0 mm 5 m/s 758 mmHg 65%
    23:00 +8°C° 0 mm 5 m/s 758 mmHg 66%

    24 Abril, Quarta-feira

    Tempo Temperatura Precipitação Vento Pressão Humidade
    00:00 +8°C° 0 mm 4 m/s 757 mmHg 66%
    01:00 +8°C° 0.5 mm 4 m/s 757 mmHg 69%
    02:00 +8°C° 0.5 mm 4 m/s 757 mmHg 73%
    03:00 +9°C° 0.5 mm 3 m/s 756 mmHg 76%
    04:00 +9°C° 0.2 mm 3 m/s 756 mmHg 72%
    05:00 +9°C° 0.2 mm 3 m/s 756 mmHg 68%
    06:00 +10°C° 0.2 mm 3 m/s 756 mmHg 64%
    07:00 +12°C° 0 mm 3 m/s 756 mmHg 58%
    08:00 +14°C° 0 mm 3 m/s 756 mmHg 52%
    09:00 +18°C° 0 mm 3 m/s 756 mmHg 45%
    10:00 +19°C° 0 mm 3 m/s 755 mmHg 43%
    11:00 +20°C° 0 mm 3 m/s 755 mmHg 41%
    12:00 +21°C° 0 mm 3 m/s 755 mmHg 39%
    13:00 +20°C° 0 mm 3 m/s 755 mmHg 44%
    14:00 +20°C° 0 mm 3 m/s 754 mmHg 48%
    15:00 +19°C° 0 mm 3 m/s 754 mmHg 52%
    16:00 +17°C° 0 mm 3 m/s 754 mmHg 60%
    17:00 +14°C° 0 mm 3 m/s 755 mmHg 67%
    18:00 +14°C° 0 mm 2 m/s 755 mmHg 74%
    19:00 +14°C° 0.1 mm 2 m/s 755 mmHg 74%
    20:00 +13°C° 0.1 mm 1 m/s 755 mmHg 75%
    21:00 +13°C° 0.1 mm 1 m/s 755 mmHg 75%
    22:00 +12°C° 0.3 mm 1 m/s 755 mmHg 75%
    23:00 +12°C° 0.3 mm 1 m/s 755 mmHg 75%

    25 Abril, Quinta-feira

    Tempo Temperatura Precipitação Vento Pressão Humidade
    00:00 +11°C° 0.3 mm 1 m/s 755 mmHg 75%
    01:00 +11°C° 0 mm 1 m/s 755 mmHg 75%
    02:00 +10°C° 0 mm 1 m/s 755 mmHg 75%
    03:00 +10°C° 0 mm 1 m/s 755 mmHg 75%
    04:00 +10°C° 0 mm 1 m/s 755 mmHg 75%
    05:00 +10°C° 0 mm 1 m/s 755 mmHg 76%
    06:00 +9°C° 0 mm 2 m/s 755 mmHg 76%
    07:00 +10°C° 0 mm 2 m/s 755 mmHg 67%
    08:00 +12°C° 0 mm 2 m/s 755 mmHg 59%
    09:00 +12°C° 0 mm 3 m/s 755 mmHg 50%
    10:00 +13°C° 0 mm 3 m/s 755 mmHg 45%
    11:00 +14°C° 0 mm 4 m/s 755 mmHg 40%
    12:00 +15°C° 0 mm 4 m/s 755 mmHg 35%
    13:00 +14°C° 0 mm 4 m/s 755 mmHg 36%
    14:00 +14°C° 0 mm 4 m/s 755 mmHg 37%
    15:00 +13°C° 0 mm 4 m/s 755 mmHg 39%
    16:00 +12°C° 0 mm 4 m/s 755 mmHg 45%
    17:00 +11°C° 0 mm 4 m/s 755 mmHg 51%
    18:00 +9°C° 0 mm 3 m/s 755 mmHg 57%
    19:00 +9°C° 0 mm 3 m/s 755 mmHg 60%
    20:00 +8°C° 0 mm 3 m/s 756 mmHg 62%
    21:00 +8°C° 0 mm 2 m/s 756 mmHg 65%
    22:00 +8°C° 0.2 mm 2 m/s 756 mmHg 67%
    23:00 +9°C° 0.2 mm 1 m/s 755 mmHg 69%

    26 Abril, Sexta-feira

    Tempo Temperatura Precipitação Vento Pressão Humidade
    00:00 +9°C° 0.2 mm 1 m/s 755 mmHg 70%
    01:00 +8°C° 0.5 mm 1 m/s 755 mmHg 74%
    02:00 +7°C° 0.5 mm 2 m/s 755 mmHg 77%
    03:00 +7°C° 0.5 mm 2 m/s 754 mmHg 80%
    04:00 +7°C° 1.5 mm 2 m/s 754 mmHg 83%
    05:00 +6°C° 1.5 mm 2 m/s 754 mmHg 86%
    06:00 +6°C° 1.5 mm 2 m/s 754 mmHg 88%
    07:00 +5°C° 1.5 mm 3 m/s 754 mmHg 87%
    08:00 +5°C° 1.5 mm 3 m/s 754 mmHg 86%
    09:00 +5°C° 1.5 mm 3 m/s 754 mmHg 85%
    10:00 +5°C° 2.2 mm 3 m/s 753 mmHg 86%
    11:00 +5°C° 2.2 mm 3 m/s 753 mmHg 86%
    12:00 +5°C° 2.2 mm 3 m/s 753 mmHg 87%
    13:00 +5°C° 1.3 mm 3 m/s 753 mmHg 86%
    14:00 +5°C° 1.3 mm 3 m/s 753 mmHg 86%
    15:00 +5°C° 1.3 mm 4 m/s 753 mmHg 85%
    16:00 +4°C° 0.2 mm 4 m/s 753 mmHg 85%
    17:00 +4°C° 0.2 mm 4 m/s 753 mmHg 85%
    18:00 +4°C° 0.2 mm 4 m/s 753 mmHg 85%
    19:00 +3°C° 0 mm 3 m/s 754 mmHg 85%
    20:00 +3°C° 0 mm 3 m/s 754 mmHg 85%
    21:00 +2°C° 0 mm 3 m/s 755 mmHg 85%
    22:00 +1°C° 0 mm 3 m/s 754 mmHg 85%
    23:00 +2°C° 0 mm 2 m/s 754 mmHg 86%
    Mostrar mais